When you browse on this site, cookies collect data to enhance your experience and personalize the content and advertising you see.
Visit our Privacy Policy to learn more. By continuing to use the site, you agree to this use of cookies and data.
  • In Schweiz
  • Länderverzeichnis
  • Für 7 Tage
  • Wassertemperatur
  • Wetterkarte
  • Widgets
  • user-avatar
    Anmelden

    Stündliche Wetter Bubanza

    Heute, 8 April, Mittwoch

    Zeit Temperatur Niederschläge Wind Luftdruck Luftfeuchtigkeit
    00:00 +23°C° 0.8 mm 1 m/S 673 mmHg 90%
    01:00 +20°C° 0.8 mm 0 m/S 673 mmHg 91%
    02:00 +20°C° 0 mm 0 m/S 673 mmHg 90%
    03:00 +20°C° 0.5 mm 0 m/S 673 mmHg 91%
    04:00 +20°C° 0.5 mm 0 m/S 672 mmHg 92%
    05:00 +19°C° 0.5 mm 0 m/S 672 mmHg 93%
    06:00 +20°C° 0.1 mm 0 m/S 673 mmHg 91%
    07:00 +22°C° 0.1 mm 0 m/S 674 mmHg 89%
    08:00 +23°C° 0 mm 0 m/S 675 mmHg 87%
    09:00 +24°C° 0.6 mm 0 m/S 675 mmHg 84%
    10:00 +27°C° 0.6 mm 1 m/S 675 mmHg 81%
    11:00 +27°C° 0.6 mm 1 m/S 675 mmHg 78%
    12:00 +27°C° 1 mm 1 m/S 674 mmHg 79%
    13:00 +25°C° 1 mm 0 m/S 673 mmHg 80%
    14:00 +25°C° 1 mm 0 m/S 672 mmHg 81%
    15:00 +25°C° 0.6 mm 0 m/S 672 mmHg 82%
    16:00 +25°C° 0.6 mm 0 m/S 672 mmHg 83%
    17:00 +24°C° 0.6 mm 0 m/S 671 mmHg 83%
    18:00 +23°C° 0.4 mm 0 m/S 672 mmHg 85%
    19:00 +22°C° 0.4 mm 0 m/S 672 mmHg 87%
    20:00 +21°C° 0.4 mm 0 m/S 672 mmHg 88%
    21:00 +23°C° 0 mm 1 m/S 673 mmHg 89%
    22:00 +22°C° 0 mm 1 m/S 673 mmHg 89%
    23:00 +22°C° 0 mm 1 m/S 673 mmHg 89%

    Morgen, 9 April, Donnerstag

    Zeit Temperatur Niederschläge Wind Luftdruck Luftfeuchtigkeit
    00:00 +22°C° 0 mm 1 m/S 673 mmHg 88%
    01:00 +22°C° 0 mm 1 m/S 672 mmHg 88%
    02:00 +22°C° 0 mm 1 m/S 672 mmHg 87%
    03:00 +22°C° 0 mm 1 m/S 672 mmHg 87%
    04:00 +22°C° 0 mm 1 m/S 672 mmHg 86%
    05:00 +22°C° 0 mm 1 m/S 672 mmHg 85%
    06:00 +23°C° 0 mm 1 m/S 673 mmHg 84%
    07:00 +22°C° 0 mm 0 m/S 674 mmHg 82%
    08:00 +23°C° 0 mm 0 m/S 675 mmHg 80%
    09:00 +26°C° 0.4 mm 1 m/S 675 mmHg 78%
    10:00 +27°C° 0.4 mm 1 m/S 674 mmHg 75%
    11:00 +28°C° 0.4 mm 2 m/S 674 mmHg 72%
    12:00 +28°C° 1.3 mm 2 m/S 673 mmHg 73%
    13:00 +28°C° 1.3 mm 2 m/S 673 mmHg 74%
    14:00 +28°C° 1.3 mm 2 m/S 672 mmHg 75%
    15:00 +28°C° 0.7 mm 1 m/S 672 mmHg 79%
    16:00 +27°C° 0.7 mm 1 m/S 672 mmHg 82%
    17:00 +24°C° 0.7 mm 0 m/S 671 mmHg 86%
    18:00 +25°C° 0.7 mm 1 m/S 672 mmHg 87%
    19:00 +24°C° 0.7 mm 1 m/S 672 mmHg 87%
    20:00 +23°C° 0.7 mm 1 m/S 673 mmHg 88%
    21:00 +23°C° 0.3 mm 1 m/S 673 mmHg 89%
    22:00 +23°C° 0.3 mm 1 m/S 673 mmHg 90%
    23:00 +23°C° 0.3 mm 1 m/S 673 mmHg 91%

    übermorgen, 10 April, Freitag

    Zeit Temperatur Niederschläge Wind Luftdruck Luftfeuchtigkeit
    00:00 +22°C° 0.1 mm 1 m/S 672 mmHg 90%
    01:00 +22°C° 0.1 mm 1 m/S 672 mmHg 90%
    02:00 +22°C° 0.1 mm 1 m/S 672 mmHg 90%
    03:00 +22°C° 0.1 mm 1 m/S 672 mmHg 90%
    04:00 +22°C° 0.1 mm 1 m/S 672 mmHg 90%
    05:00 +22°C° 0.1 mm 1 m/S 672 mmHg 91%
    06:00 +22°C° 0.4 mm 1 m/S 673 mmHg 91%
    07:00 +23°C° 0.4 mm 1 m/S 673 mmHg 91%
    08:00 +23°C° 0.4 mm 1 m/S 674 mmHg 91%
    09:00 +24°C° 0.5 mm 1 m/S 674 mmHg 91%
    10:00 +24°C° 0.5 mm 1 m/S 674 mmHg 90%
    11:00 +24°C° 0.5 mm 1 m/S 674 mmHg 90%
    12:00 +25°C° 1.1 mm 1 m/S 673 mmHg 87%
    13:00 +26°C° 1.1 mm 1 m/S 672 mmHg 85%
    14:00 +27°C° 1.1 mm 2 m/S 672 mmHg 82%
    15:00 +26°C° 0.7 mm 1 m/S 672 mmHg 84%
    16:00 +26°C° 0.7 mm 1 m/S 672 mmHg 86%
    17:00 +26°C° 0.7 mm 1 m/S 671 mmHg 87%
    18:00 +25°C° 0.4 mm 1 m/S 672 mmHg 89%
    19:00 +23°C° 0.4 mm 1 m/S 672 mmHg 91%
    20:00 +22°C° 0.4 mm 1 m/S 672 mmHg 93%
    21:00 +22°C° 0.4 mm 1 m/S 673 mmHg 93%
    22:00 +22°C° 0.4 mm 1 m/S 673 mmHg 93%
    23:00 +22°C° 0.4 mm 1 m/S 673 mmHg 92%

    11 April, Samstag

    Zeit Temperatur Niederschläge Wind Luftdruck Luftfeuchtigkeit
    00:00 +22°C° 0.3 mm 1 m/S 673 mmHg 93%
    01:00 +21°C° 0.3 mm 1 m/S 672 mmHg 93%
    02:00 +21°C° 0.3 mm 1 m/S 672 mmHg 93%
    03:00 +21°C° 0 mm 1 m/S 672 mmHg 93%
    04:00 +21°C° 0 mm 1 m/S 672 mmHg 93%
    05:00 +21°C° 0 mm 1 m/S 672 mmHg 93%
    06:00 +22°C° 0 mm 1 m/S 673 mmHg 91%
    07:00 +23°C° 0 mm 1 m/S 674 mmHg 90%
    08:00 +24°C° 0 mm 1 m/S 674 mmHg 88%
    09:00 +25°C° 0.2 mm 1 m/S 674 mmHg 83%
    10:00 +27°C° 0.2 mm 1 m/S 674 mmHg 77%
    11:00 +28°C° 0.2 mm 1 m/S 674 mmHg 72%
    12:00 +28°C° 1.2 mm 1 m/S 673 mmHg 74%
    13:00 +28°C° 1.2 mm 2 m/S 672 mmHg 77%
    14:00 +28°C° 1.2 mm 2 m/S 672 mmHg 80%
    15:00 +27°C° 1.3 mm 2 m/S 671 mmHg 82%
    16:00 +26°C° 1.3 mm 1 m/S 671 mmHg 85%
    17:00 +26°C° 1.3 mm 1 m/S 671 mmHg 87%
    18:00 +25°C° 0.2 mm 1 m/S 671 mmHg 89%
    19:00 +24°C° 0.2 mm 1 m/S 672 mmHg 90%
    20:00 +23°C° 0.2 mm 1 m/S 672 mmHg 91%
    21:00 +22°C° 0.1 mm 1 m/S 672 mmHg 91%
    22:00 +22°C° 0.1 mm 1 m/S 672 mmHg 91%
    23:00 +22°C° 0.1 mm 1 m/S 673 mmHg 91%

    12 April, Sonntag

    Zeit Temperatur Niederschläge Wind Luftdruck Luftfeuchtigkeit
    00:00 +21°C° 0.2 mm 1 m/S 672 mmHg 92%
    01:00 +21°C° 0.2 mm 1 m/S 672 mmHg 92%
    02:00 +21°C° 0.2 mm 1 m/S 672 mmHg 93%
    03:00 +21°C° 0.1 mm 1 m/S 672 mmHg 93%
    04:00 +21°C° 0.1 mm 1 m/S 672 mmHg 92%
    05:00 +21°C° 0.1 mm 1 m/S 672 mmHg 92%
    06:00 +22°C° 0 mm 1 m/S 673 mmHg 90%
    07:00 +21°C° 0 mm 0 m/S 674 mmHg 89%
    08:00 +22°C° 0 mm 0 m/S 674 mmHg 87%
    09:00 +23°C° 0.2 mm 0 m/S 674 mmHg 81%
    10:00 +27°C° 0.2 mm 1 m/S 674 mmHg 76%
    11:00 +28°C° 0.2 mm 1 m/S 674 mmHg 71%
    12:00 +28°C° 0.9 mm 1 m/S 674 mmHg 73%
    13:00 +28°C° 0.9 mm 2 m/S 673 mmHg 74%
    14:00 +28°C° 0.9 mm 2 m/S 672 mmHg 76%
    15:00 +28°C° 0.9 mm 2 m/S 672 mmHg 79%
    16:00 +27°C° 0.9 mm 1 m/S 671 mmHg 83%
    17:00 +26°C° 0.9 mm 1 m/S 671 mmHg 87%
    18:00 +25°C° 0.7 mm 1 m/S 671 mmHg 89%
    19:00 +24°C° 0.7 mm 1 m/S 672 mmHg 91%
    20:00 +23°C° 0.7 mm 1 m/S 672 mmHg 93%
    21:00 +22°C° 0.5 mm 1 m/S 672 mmHg 92%
    22:00 +20°C° 0.5 mm 0 m/S 673 mmHg 91%
    23:00 +20°C° 0.5 mm 0 m/S 673 mmHg 91%

    13 April, Montag

    Zeit Temperatur Niederschläge Wind Luftdruck Luftfeuchtigkeit
    00:00 +20°C° 0.2 mm 0 m/S 672 mmHg 91%
    01:00 +19°C° 0.2 mm 0 m/S 672 mmHg 92%
    02:00 +21°C° 0.2 mm 1 m/S 672 mmHg 92%
    03:00 +21°C° 0.1 mm 1 m/S 672 mmHg 92%
    04:00 +21°C° 0.1 mm 1 m/S 672 mmHg 92%
    05:00 +21°C° 0.1 mm 1 m/S 672 mmHg 92%
    06:00 +20°C° 0.1 mm 0 m/S 673 mmHg 89%
    07:00 +22°C° 0.1 mm 0 m/S 674 mmHg 86%
    08:00 +23°C° 0.1 mm 0 m/S 674 mmHg 83%
    09:00 +24°C° 0.5 mm 0 m/S 674 mmHg 79%
    10:00 +26°C° 0.5 mm 0 m/S 674 mmHg 74%
    11:00 +29°C° 0.5 mm 1 m/S 674 mmHg 69%
    12:00 +29°C° 1 mm 1 m/S 673 mmHg 70%
    13:00 +29°C° 1 mm 1 m/S 673 mmHg 71%
    14:00 +29°C° 1 mm 2 m/S 672 mmHg 72%
    15:00 +28°C° 0.8 mm 1 m/S 671 mmHg 76%
    16:00 +28°C° 0.8 mm 1 m/S 671 mmHg 80%
    17:00 +27°C° 0.8 mm 1 m/S 671 mmHg 84%
    18:00 +25°C° 0.5 mm 1 m/S 671 mmHg 86%
    19:00 +24°C° 0.5 mm 1 m/S 671 mmHg 88%
    20:00 +21°C° 0.5 mm 0 m/S 672 mmHg 89%
    21:00 +21°C° 0.4 mm 0 m/S 672 mmHg 89%
    22:00 +20°C° 0.4 mm 0 m/S 672 mmHg 90%
    23:00 +20°C° 0.4 mm 0 m/S 673 mmHg 90%
    Mehr zeigen